Poteau, OK

7:16 AM CDT on June 23, 2017 (GMT -0500)
Kerr

Weather History for KRKR - February, 2013

Change the Weather History Date:

Tuesday, February 12, 2013

  Actual Average (KFSM) Record (KFSM)
Temperature  
Mean Temperature 40 °F -  
Max Temperature 44 °F 53 °F 86 °F (1962)
Min Temperature 35 °F 32 °F -15 °F (1899)
Degree Days  
Heating Degree Days 26    
Moisture  
Dew Point 38 °F    
Average Humidity 95    
Maximum Humidity 100    
Minimum Humidity 76    
Precipitation  
Precipitation 0.44 in - - ()
Sea Level Pressure  
Sea Level Pressure 30.01 in    
Wind  
Wind Speed 3 mph (NNE)    
Max Wind Speed 12 mph    
Max Gust Speed 21 mph    
Visibility 8 miles    
Events Rain    
Averages and records for this station are not official NWS values.
T = Trace of Precipitation, MM = Missing Value Source: NWS Daily Summary

Daily Weather History Graph

Daily Weather History Graph

Search for Another Location

Airport or City:

Trip Planner

Search our weather history database for the weather conditions in past years. The results will help you decide how hot, cold, wet, or windy it might be!

Date:

Astronomy

Feb. 12, 2013 Rise Set
Actual Time 7:07 AM CST 5:58 PM CST
Civil Twilight 6:41 AM CST 6:24 PM CST
Nautical Twilight 6:11 AM CST 6:54 PM CST
Astronomical Twilight 5:42 AM CST 7:23 PM CST
Moon 8:13 AM CST (2/12) 8:50 PM CST (2/12)
Length of Visible Light 11h 43m
Length of Day
10h 51m
Waxing Crescent, 7% of the Moon is Illuminated
Feb 12
Waxing Crescent
Feb 17
First Quarter
Feb 25
Full
Mar 4
Last Quarter
Mar 11
New

Hourly Weather History & Observations

Time (CST) Temp. Windchill Dew Point Humidity Pressure Visibility Wind Dir Wind Speed Gust Speed Precip Events Conditions
12:15 AM 37.4 °F - 35.6 °F 93% 30.14 in 10.0 mi Calm Calm - N/A   Scattered Clouds
12:35 AM 37.4 °F - 35.6 °F 93% 30.14 in 10.0 mi Calm Calm - N/A   Scattered Clouds
12:55 AM 35.6 °F - 33.8 °F 93% 30.14 in 10.0 mi Calm Calm - N/A   Scattered Clouds
1:15 AM 35.6 °F - 33.8 °F 93% 30.13 in 10.0 mi Calm Calm - N/A   Scattered Clouds
1:35 AM 37.4 °F - 35.6 °F 93% 30.13 in 10.0 mi Calm Calm - N/A   Scattered Clouds
1:55 AM 37.4 °F - 35.6 °F 93% 30.11 in 10.0 mi Calm Calm - N/A   Clear
2:15 AM 35.6 °F - 35.6 °F 100% 30.08 in 10.0 mi Calm Calm - N/A   Clear
2:35 AM 35.6 °F 32.8 °F 35.6 °F 100% 30.07 in 10.0 mi ENE 3.5 mph - N/A   Clear
2:55 AM 35.6 °F - 35.6 °F 100% 30.07 in 10.0 mi Calm Calm - N/A   Clear
3:15 AM 35.6 °F - 35.6 °F 100% 30.04 in 10.0 mi Calm Calm - N/A   Clear
3:35 AM 35.6 °F - 35.6 °F 100% 30.04 in 10.0 mi Calm Calm - N/A   Clear
3:55 AM 35.6 °F 32.8 °F 35.6 °F 100% 30.05 in 10.0 mi SE 3.5 mph - N/A   Clear
4:15 AM 35.6 °F - 35.6 °F 100% 30.08 in 10.0 mi Calm Calm - N/A   Clear
4:35 AM 35.6 °F - 35.6 °F 100% 30.07 in 10.0 mi Calm Calm - N/A   Clear
4:55 AM 35.6 °F - 35.6 °F 100% 30.04 in 10.0 mi Calm Calm - N/A   Clear
5:15 AM 35.6 °F - 35.6 °F 100% 30.06 in 10.0 mi Calm Calm - N/A   Scattered Clouds
5:35 AM 35.6 °F - 35.6 °F 100% 30.07 in 10.0 mi Calm Calm - N/A   Mostly Cloudy
5:55 AM 35.6 °F - 35.6 °F 100% 30.09 in 10.0 mi Calm Calm - N/A   Overcast
6:15 AM 35.6 °F - 35.6 °F 100% 30.12 in 10.0 mi Calm Calm - N/A   Mostly Cloudy
6:35 AM 37.4 °F 33.8 °F 35.6 °F 93% 30.05 in 10.0 mi NNE 4.6 mph - N/A   Overcast
6:55 AM 37.4 °F - 35.6 °F 93% 30.07 in 10.0 mi Calm Calm - N/A   Scattered Clouds
7:15 AM 37.4 °F - 35.6 °F 93% 30.07 in 10.0 mi Calm Calm - N/A   Clear
7:35 AM 37.4 °F 34.9 °F 35.6 °F 93% 30.05 in 10.0 mi ENE 3.5 mph - N/A   Mostly Cloudy
7:55 AM 37.4 °F 33.8 °F 35.6 °F 93% 30.03 in 10.0 mi ENE 4.6 mph - N/A   Scattered Clouds
8:15 AM 37.4 °F - 35.6 °F 93% 30.01 in 10.0 mi Calm Calm - N/A   Scattered Clouds
8:35 AM 37.4 °F 32.1 °F 35.6 °F 93% 30.03 in 10.0 mi North 6.9 mph - N/A   Mostly Cloudy
8:55 AM 41.0 °F 38.0 °F 37.4 °F 87% 30.04 in 10.0 mi NNW 4.6 mph - N/A   Mostly Cloudy
9:15 AM 41.0 °F - 35.6 °F 81% 30.06 in 10.0 mi Calm Calm - N/A   Overcast
9:35 AM 42.8 °F - 35.6 °F 76% 30.06 in 10.0 mi Calm Calm - N/A   Light Drizzle
9:55 AM 42.8 °F - 37.4 °F 81% 30.09 in 10.0 mi Calm Calm - N/A Rain Light Rain
10:15 AM 42.8 °F - 37.4 °F 81% 30.07 in 10.0 mi Calm Calm - N/A Rain Light Rain
10:35 AM 42.8 °F 39.3 °F 37.4 °F 81% 30.06 in 10.0 mi ENE 5.8 mph - N/A Rain Light Rain
10:55 AM 42.8 °F 41.1 °F 39.2 °F 87% 30.05 in 10.0 mi North 3.5 mph - N/A Rain Light Rain
11:15 AM 42.8 °F - 39.2 °F 87% 30.03 in 10.0 mi Calm Calm - N/A   Overcast
11:35 AM 44.6 °F 42.2 °F 39.2 °F 81% 30.02 in 7.0 mi NNE 4.6 mph - 0.02 in Rain Rain
11:55 AM 42.8 °F 38.6 °F 39.2 °F 87% 30.03 in 10.0 mi NE 6.9 mph - 0.04 in Rain Rain
12:15 PM 42.8 °F 37.0 °F 37.4 °F 81% 30.01 in 3.0 mi ENE 10.4 mph 17.3 mph 0.04 in Rain Rain
12:35 PM 42.8 °F 37.5 °F 39.2 °F 87% 30.01 in 10.0 mi NE 9.2 mph 19.6 mph 0.08 in Rain Light Rain
12:55 PM 42.8 °F 37.5 °F 39.2 °F 87% 30.01 in 7.0 mi NNE 9.2 mph - 0.11 in Rain Rain
1:15 PM 41.0 °F 34.3 °F 39.2 °F 93% 29.98 in 5.0 mi NNE 11.5 mph 16.1 mph 0.03 in Rain Rain
1:35 PM 41.0 °F 34.7 °F 41.0 °F 100% 29.98 in 2.5 mi NNE 10.4 mph 16.1 mph 0.06 in Rain Light Rain
1:55 PM 41.0 °F 34.3 °F 41.0 °F 100% 29.96 in 2.5 mi NNE 11.5 mph 20.7 mph 0.09 in   Overcast
2:15 PM 41.0 °F 35.8 °F 41.0 °F 100% 29.95 in 5.0 mi NNE 8.1 mph - 0.01 in Rain Rain
2:35 PM 41.0 °F 35.8 °F 41.0 °F 100% 29.95 in 7.0 mi North 8.1 mph - 0.03 in Rain Light Rain
2:55 PM 41.0 °F 38.0 °F 41.0 °F 100% 29.94 in 5.0 mi NNE 4.6 mph - 0.04 in Rain Rain
3:15 PM 42.8 °F 40.1 °F 41.0 °F 93% 29.93 in 7.0 mi NE 4.6 mph - N/A Rain Rain
3:35 PM 42.8 °F 41.1 °F 41.0 °F 93% 29.92 in 4.0 mi NNE 3.5 mph - 0.01 in Rain Light Rain
3:55 PM 42.8 °F 41.1 °F 41.0 °F 93% 29.92 in 5.0 mi North 3.5 mph - 0.02 in Rain Light Rain
4:15 PM 42.8 °F 39.3 °F 41.0 °F 93% 29.92 in 3.0 mi North 5.8 mph - 0.01 in Rain Light Rain
4:35 PM 41.0 °F 37.1 °F 41.0 °F 100% 29.92 in 2.5 mi North 5.8 mph - 0.02 in Rain Light Rain
4:55 PM 41.0 °F 38.0 °F 41.0 °F 100% 29.92 in 2.0 mi North 4.6 mph - 0.03 in Rain Heavy Rain
5:15 PM 41.0 °F 39.0 °F 41.0 °F 100% 29.92 in 2.5 mi North 3.5 mph - N/A   Heavy Drizzle
5:35 PM 41.0 °F 35.8 °F 41.0 °F 100% 29.92 in 2.0 mi North 8.1 mph - 0.01 in   Heavy Drizzle
5:55 PM 41.0 °F 36.4 °F 41.0 °F 100% 29.92 in 3.0 mi North 6.9 mph - 0.01 in   Heavy Drizzle
6:15 PM 41.0 °F 35.2 °F 41.0 °F 100% 29.92 in 3.0 mi North 9.2 mph - 0.01 in   Heavy Drizzle
6:35 PM 41.0 °F 37.1 °F 41.0 °F 100% 29.93 in 5.0 mi NNE 5.8 mph - 0.01 in   Heavy Drizzle
6:55 PM 41.0 °F 36.4 °F 41.0 °F 100% 29.93 in 2.5 mi North 6.9 mph - 0.02 in Rain Light Rain
7:15 PM 41.0 °F 34.7 °F 41.0 °F 100% 29.94 in 2.0 mi North 10.4 mph - 0.01 in   Overcast
7:35 PM 41.0 °F 34.7 °F 41.0 °F 100% 29.95 in 1.8 mi North 10.4 mph - 0.02 in   Overcast
8:15 PM 41.0 °F 35.2 °F 41.0 °F 100% 29.96 in 2.5 mi North 9.2 mph - N/A   Light Drizzle
8:35 PM 41.0 °F 34.7 °F 41.0 °F 100% 29.97 in 3.0 mi North 10.4 mph - 0.01 in Rain Heavy Rain
8:55 PM 41.0 °F 35.2 °F 41.0 °F 100% 29.97 in 5.0 mi North 9.2 mph - 0.02 in Rain Rain
9:15 PM 41.0 °F 35.8 °F 41.0 °F 100% 29.98 in 10.0 mi NNE 8.1 mph - 0.01 in Rain Light Rain
9:35 PM 41.0 °F 35.8 °F 41.0 °F 100% 29.98 in 10.0 mi North 8.1 mph - 0.02 in Rain Light Rain
9:55 PM 41.0 °F 37.1 °F 39.2 °F 93% 29.98 in 10.0 mi NNE 5.8 mph - 0.02 in Rain Light Rain
10:15 PM 39.2 °F 35.9 °F 39.2 °F 100% 29.98 in 10.0 mi NNE 4.6 mph - N/A Rain Rain
10:35 PM 39.2 °F 34.2 °F 37.4 °F 93% 29.98 in 10.0 mi NNE 6.9 mph - N/A Rain Rain
10:55 PM 39.2 °F 35.0 °F 37.4 °F 93% 29.98 in 7.0 mi North 5.8 mph - 0.01 in Rain Light Rain
11:15 PM 39.2 °F 35.9 °F 39.2 °F 100% 29.98 in 10.0 mi NNE 4.6 mph - N/A Rain Light Rain
11:35 PM 39.2 °F 37.0 °F 39.2 °F 100% 29.98 in 7.0 mi North 3.5 mph - 0.01 in Rain Light Rain
11:55 PM 37.4 °F 30.8 °F 37.4 °F 100% 29.98 in 4.0 mi NNW 9.2 mph - 0.01 in Rain Rain